Time,TemperatureF,DewpointF,PressureIn,WindDirection,WindDirectionDegrees,WindSpeedMPH,WindSpeedGustMPH,Humidity,HourlyPrecipIn,Conditions,Clouds,dailyrainin,SoftwareType,DateUTC
2013-07-07 00:01:00,73.0,39.8,25.42,SE,135,8.1,8.1,30,0.00,,---,0.00,VWS V14.01,2013-07-07 05:01:00,
2013-07-07 00:06:00,72.9,40.5,25.42,ESE,112,7.8,7.8,31,0.00,,---,0.00,VWS V14.01,2013-07-07 05:06:00,
2013-07-07 00:11:00,72.5,40.2,25.42,ESE,112,3.1,4.9,31,0.00,,---,0.00,VWS V14.01,2013-07-07 05:11:00,
2013-07-07 00:16:00,72.1,39.9,25.45,SSE,158,5.6,5.6,31,0.00,,---,0.00,VWS V14.01,2013-07-07 05:16:00,
2013-07-07 00:21:00,72.0,39.7,25.45,SSE,158,7.6,7.6,31,0.00,,---,0.00,VWS V14.01,2013-07-07 05:21:00,
2013-07-07 00:26:00,72.1,40.7,25.45,SSE,158,7.4,9.8,32,0.00,,---,0.00,VWS V14.01,2013-07-07 05:26:00,
2013-07-07 00:31:00,72.1,39.9,25.45,SSE,158,8.5,10.5,31,0.00,,---,0.00,VWS V14.01,2013-07-07 05:31:00,
2013-07-07 00:36:00,72.1,39.9,25.45,ESE,112,10.1,10.1,31,0.00,,---,0.00,VWS V14.01,2013-07-07 05:36:00,
2013-07-07 00:41:00,72.1,39.9,25.45,ESE,112,11.2,11.2,31,0.00,,---,0.00,VWS V14.01,2013-07-07 05:41:00,
2013-07-07 00:46:00,72.1,39.9,25.42,ESE,112,12.5,15.7,31,0.00,,---,0.00,VWS V14.01,2013-07-07 05:46:00,
2013-07-07 00:51:00,72.1,39.9,25.42,ESE,112,12.5,13.2,31,0.00,,---,0.00,VWS V14.01,2013-07-07 05:51:00,
2013-07-07 00:56:00,72.1,39.9,25.42,SE,135,10.5,10.5,31,0.00,,---,0.00,VWS V14.01,2013-07-07 05:56:00,
2013-07-07 01:01:00,71.8,39.5,25.42,ESE,112,9.2,11.9,31,0.00,,---,0.00,VWS V14.01,2013-07-07 06:01:00,
2013-07-07 01:06:00,71.4,40.0,25.42,ESE,112,10.7,11.0,32,0.00,,---,0.00,VWS V14.01,2013-07-07 06:06:00,
2013-07-07 01:11:00,71.2,39.9,25.42,ESE,112,13.0,13.0,32,0.00,,---,0.00,VWS V14.01,2013-07-07 06:11:00,
2013-07-07 01:16:00,71.2,39.9,25.42,ESE,112,12.1,12.8,32,0.00,,---,0.00,VWS V14.01,2013-07-07 06:16:00,
2013-07-07 01:21:00,71.1,39.7,25.42,ESE,112,10.5,10.5,32,0.00,,---,0.00,VWS V14.01,2013-07-07 06:21:00,
2013-07-07 01:26:00,70.7,39.4,25.42,ESE,112,13.0,13.0,32,0.00,,---,0.00,VWS V14.01,2013-07-07 06:26:00,
2013-07-07 01:31:00,70.7,39.4,25.42,ESE,112,11.0,11.0,32,0.00,,---,0.00,VWS V14.01,2013-07-07 06:31:00,
2013-07-07 01:36:00,70.5,39.3,25.42,ESE,112,7.6,7.6,32,0.00,,---,0.00,VWS V14.01,2013-07-07 06:36:00,
2013-07-07 01:41:00,70.3,39.1,25.42,ESE,112,8.5,9.8,32,0.00,,---,0.00,VWS V14.01,2013-07-07 06:41:00,
2013-07-07 01:46:00,70.2,39.0,25.42,ESE,112,10.1,10.1,32,0.00,,---,0.00,VWS V14.01,2013-07-07 06:46:00,
2013-07-07 01:51:00,70.2,39.0,25.42,ESE,112,9.8,9.8,32,0.00,,---,0.00,VWS V14.01,2013-07-07 06:51:00,
2013-07-07 01:56:00,70.3,39.1,25.42,ESE,112,12.8,12.8,32,0.00,,---,0.00,VWS V14.01,2013-07-07 06:56:00,
2013-07-07 02:01:00,70.5,39.3,25.42,ESE,112,7.4,10.3,32,0.00,,---,0.00,VWS V14.01,2013-07-07 07:01:00,
2013-07-07 02:06:00,70.0,39.6,25.42,ESE,112,8.5,8.5,33,0.00,,---,0.00,VWS V14.01,2013-07-07 07:06:00,
2013-07-07 02:11:00,70.0,39.6,25.42,ESE,112,11.0,11.0,33,0.00,,---,0.00,VWS V14.01,2013-07-07 07:11:00,
2013-07-07 02:16:00,70.3,39.9,25.42,ESE,112,6.0,10.1,33,0.00,,---,0.00,VWS V14.01,2013-07-07 07:16:00,
2013-07-07 02:21:00,69.8,39.4,25.42,South,180,7.4,8.1,33,0.00,,---,0.00,VWS V14.01,2013-07-07 07:21:00,
2013-07-07 02:26:00,69.8,39.4,25.42,SE,135,5.8,7.2,33,0.00,,---,0.00,VWS V14.01,2013-07-07 07:26:00,
2013-07-07 02:31:00,70.0,40.3,25.42,SE,135,8.5,8.5,34,0.00,,---,0.00,VWS V14.01,2013-07-07 07:31:00,
2013-07-07 02:36:00,70.0,39.6,25.42,SE,135,3.8,5.6,33,0.00,,---,0.00,VWS V14.01,2013-07-07 07:36:00,
2013-07-07 02:41:00,69.6,40.0,25.42,ESE,112,5.4,5.4,34,0.00,,---,0.00,VWS V14.01,2013-07-07 07:41:00,
2013-07-07 02:46:00,69.4,39.9,25.42,SE,135,3.4,3.4,34,0.00,,---,0.00,VWS V14.01,2013-07-07 07:46:00,
2013-07-07 02:51:00,69.3,40.5,25.42,SE,135,7.4,7.4,35,0.00,,---,0.00,VWS V14.01,2013-07-07 07:51:00,
2013-07-07 02:56:00,69.4,40.6,25.42,SE,135,5.4,5.4,35,0.00,,---,0.00,VWS V14.01,2013-07-07 07:56:00,
2013-07-07 03:01:00,69.1,40.3,25.42,ESE,112,3.1,3.6,35,0.00,,---,0.00,VWS V14.01,2013-07-07 08:01:00,
2013-07-07 03:06:00,69.1,40.3,25.42,ESE,112,5.4,5.4,35,0.00,,---,0.00,VWS V14.01,2013-07-07 08:06:00,
2013-07-07 03:11:00,69.3,40.5,25.42,SSE,158,6.5,6.5,35,0.00,,---,0.00,VWS V14.01,2013-07-07 08:11:00,
2013-07-07 03:16:00,69.4,40.6,25.42,SE,135,8.5,8.5,35,0.00,,---,0.00,VWS V14.01,2013-07-07 08:16:00,
2013-07-07 03:21:00,69.4,40.6,25.42,SE,135,8.7,8.7,35,0.00,,---,0.00,VWS V14.01,2013-07-07 08:21:00,
2013-07-07 03:26:00,69.3,40.5,25.42,ESE,112,5.6,8.1,35,0.00,,---,0.00,VWS V14.01,2013-07-07 08:26:00,
2013-07-07 03:31:00,68.9,40.2,25.42,South,180,3.6,4.9,35,0.00,,---,0.00,VWS V14.01,2013-07-07 08:31:00,
2013-07-07 03:36:00,68.7,40.0,25.42,East,90,5.4,5.4,35,0.00,,---,0.00,VWS V14.01,2013-07-07 08:36:00,
2013-07-07 03:41:00,68.5,39.8,25.42,ESE,112,5.6,5.6,35,0.00,,---,0.00,VWS V14.01,2013-07-07 08:41:00,
2013-07-07 03:46:00,68.5,40.5,25.42,ESE,112,5.8,6.3,36,0.00,,---,0.00,VWS V14.01,2013-07-07 08:46:00,
2013-07-07 03:51:00,68.4,40.4,25.42,ESE,112,3.8,4.3,36,0.00,,---,0.00,VWS V14.01,2013-07-07 08:51:00,
2013-07-07 03:56:00,68.2,40.2,25.42,ESE,112,3.8,3.8,36,0.00,,---,0.00,VWS V14.01,2013-07-07 08:56:00,
2013-07-07 04:01:00,68.2,40.2,25.42,East,90,3.6,3.6,36,0.00,,---,0.00,VWS V14.01,2013-07-07 09:01:00,
2013-07-07 04:06:00,68.0,40.1,25.42,NE,45,2.9,2.9,36,0.00,,---,0.00,VWS V14.01,2013-07-07 09:06:00,
2013-07-07 04:11:00,67.6,39.8,25.42,WNW,292,3.4,3.4,36,0.00,,---,0.00,VWS V14.01,2013-07-07 09:11:00,
2013-07-07 04:16:00,67.3,39.4,25.42,NE,45,0.0,0.0,36,0.00,,---,0.00,VWS V14.01,2013-07-07 09:16:00,
2013-07-07 04:21:00,67.3,40.1,25.42,ESE,112,3.4,3.4,37,0.00,,---,0.00,VWS V14.01,2013-07-07 09:21:00,
2013-07-07 04:26:00,67.3,40.1,25.42,ESE,112,2.0,3.4,37,0.00,,---,0.00,VWS V14.01,2013-07-07 09:26:00,
2013-07-07 04:31:00,67.8,40.6,25.42,South,180,2.9,4.0,37,0.00,,---,0.00,VWS V14.01,2013-07-07 09:31:00,
2013-07-07 04:36:00,67.6,40.5,25.42,SSE,158,0.0,0.0,37,0.00,,---,0.00,VWS V14.01,2013-07-07 09:36:00,
2013-07-07 04:41:00,67.6,40.5,25.42,WNW,292,2.7,2.7,37,0.00,,---,0.00,VWS V14.01,2013-07-07 09:41:00,
2013-07-07 04:46:00,68.2,40.9,25.42,South,180,5.6,6.3,37,0.00,,---,0.00,VWS V14.01,2013-07-07 09:46:00,
2013-07-07 04:51:00,68.5,40.5,25.42,ESE,112,3.4,3.6,36,0.00,,---,0.00,VWS V14.01,2013-07-07 09:51:00,
2013-07-07 04:56:00,68.4,40.4,25.42,ESE,112,5.4,5.4,36,0.00,,---,0.00,VWS V14.01,2013-07-07 09:56:00,
2013-07-07 05:01:00,68.4,40.4,25.42,SSE,158,4.3,6.0,36,0.00,,---,0.00,VWS V14.01,2013-07-07 10:01:00,
2013-07-07 05:06:00,68.5,40.5,25.42,SSE,158,5.8,5.8,36,0.00,,---,0.00,VWS V14.01,2013-07-07 10:06:00,
2013-07-07 05:11:00,68.4,40.4,25.42,SE,135,2.9,3.1,36,0.00,,---,0.00,VWS V14.01,2013-07-07 10:11:00,
2013-07-07 05:16:00,68.2,40.2,25.42,SSE,158,2.2,3.6,36,0.00,,---,0.00,VWS V14.01,2013-07-07 10:16:00,
2013-07-07 05:21:00,68.0,40.1,25.42,SSE,158,2.5,2.9,36,0.00,,---,0.00,VWS V14.01,2013-07-07 10:21:00,
2013-07-07 05:26:00,68.0,40.1,25.42,South,180,3.6,3.6,36,0.00,,---,0.00,VWS V14.01,2013-07-07 10:26:00,
2013-07-07 05:31:00,68.0,40.1,25.42,SSW,202,1.1,1.1,36,0.00,,---,0.00,VWS V14.01,2013-07-07 10:31:00,
2013-07-07 05:36:00,68.0,40.1,25.42,SW,225,3.6,3.6,36,0.00,,---,0.00,VWS V14.01,2013-07-07 10:36:00,
2013-07-07 05:41:00,67.6,39.8,25.42,SE,135,1.3,1.6,36,0.00,,---,0.00,VWS V14.01,2013-07-07 10:41:00,
2013-07-07 05:46:00,67.6,40.5,25.42,SSE,158,3.6,6.5,37,0.00,,---,0.00,VWS V14.01,2013-07-07 10:46:00,
2013-07-07 05:51:00,67.5,40.3,25.42,SE,135,3.6,5.6,37,0.00,,---,0.00,VWS V14.01,2013-07-07 10:51:00,
2013-07-07 05:56:00,67.5,40.3,25.42,SE,135,3.1,3.1,37,0.00,,---,0.00,VWS V14.01,2013-07-07 10:56:00,
2013-07-07 06:01:00,67.5,40.3,25.42,SE,135,5.6,5.6,37,0.00,,---,0.00,VWS V14.01,2013-07-07 11:01:00,
2013-07-07 06:06:00,67.5,41.0,25.42,SE,135,3.6,3.6,38,0.00,,---,0.00,VWS V14.01,2013-07-07 11:06:00,
2013-07-07 06:11:00,67.5,40.3,25.42,SE,135,3.1,4.0,37,0.00,,---,0.00,VWS V14.01,2013-07-07 11:11:00,
2013-07-07 06:16:00,67.5,40.3,25.42,SE,135,7.6,7.6,37,0.00,,---,0.00,VWS V14.01,2013-07-07 11:16:00,
2013-07-07 06:21:00,67.8,40.6,25.42,SE,135,3.6,8.1,37,0.00,,---,0.00,VWS V14.01,2013-07-07 11:21:00,
2013-07-07 06:26:00,68.0,40.8,25.42,SSE,158,4.0,4.3,37,0.00,,---,0.00,VWS V14.01,2013-07-07 11:26:00,
2013-07-07 06:31:00,67.5,40.3,25.42,SE,135,3.4,3.8,37,0.00,,---,0.00,VWS V14.01,2013-07-07 11:31:00,
2013-07-07 06:36:00,67.3,40.1,25.42,SSE,158,2.2,2.2,37,0.00,,---,0.00,VWS V14.01,2013-07-07 11:36:00,
2013-07-07 06:41:00,66.9,39.8,25.42,NW,315,0.9,5.6,37,0.00,,---,0.00,VWS V14.01,2013-07-07 11:41:00,
2013-07-07 06:46:00,66.6,39.5,25.39,NE,45,0.0,2.7,37,0.00,,---,0.00,VWS V14.01,2013-07-07 11:46:00,
2013-07-07 06:51:00,66.2,39.9,25.39,NNE,22,2.7,2.7,38,0.00,,---,0.00,VWS V14.01,2013-07-07 11:51:00,
2013-07-07 06:56:00,66.4,40.0,25.39,East,90,3.4,3.4,38,0.00,,---,0.00,VWS V14.01,2013-07-07 11:56:00,
2013-07-07 07:01:00,66.0,39.7,25.45,ENE,68,2.7,3.1,38,0.00,,---,0.00,VWS V14.01,2013-07-07 12:01:00,
2013-07-07 07:06:00,66.0,40.4,25.45,East,90,3.4,4.3,39,0.00,,---,0.00,VWS V14.01,2013-07-07 12:06:00,
2013-07-07 07:11:00,66.2,39.9,25.45,SE,135,2.5,2.7,38,0.00,,---,0.00,VWS V14.01,2013-07-07 12:11:00,
2013-07-07 07:16:00,66.4,40.0,25.48,SSE,158,3.4,3.6,38,0.00,,---,0.00,VWS V14.01,2013-07-07 12:16:00,
2013-07-07 07:21:00,67.1,40.0,25.48,SE,135,4.0,4.0,37,0.00,,---,0.00,VWS V14.01,2013-07-07 12:21:00,
2013-07-07 07:26:00,67.8,40.6,25.48,SE,135,4.3,5.4,37,0.00,,---,0.00,VWS V14.01,2013-07-07 12:26:00,
2013-07-07 07:31:00,68.0,40.1,25.48,ESE,112,5.4,6.5,36,0.00,,---,0.00,VWS V14.01,2013-07-07 12:31:00,
2013-07-07 07:36:00,68.4,40.4,25.48,SSE,158,3.6,4.3,36,0.00,,---,0.00,VWS V14.01,2013-07-07 12:36:00,
2013-07-07 07:41:00,68.5,40.5,25.48,SE,135,4.0,4.9,36,0.00,,---,0.00,VWS V14.01,2013-07-07 12:41:00,
2013-07-07 07:46:00,69.3,40.5,25.48,SSE,158,5.8,5.8,35,0.00,,---,0.00,VWS V14.01,2013-07-07 12:46:00,
2013-07-07 07:51:00,70.0,40.3,25.48,ESE,112,6.0,6.7,34,0.00,,---,0.00,VWS V14.01,2013-07-07 12:51:00,
2013-07-07 07:56:00,70.3,40.7,25.48,SE,135,5.6,7.2,34,0.00,,---,0.00,VWS V14.01,2013-07-07 12:56:00,
2013-07-07 08:01:00,71.1,40.5,25.48,South,180,4.0,8.7,33,0.00,,---,0.00,VWS V14.01,2013-07-07 13:01:00,
2013-07-07 08:06:00,71.6,40.2,25.48,SSE,158,6.3,6.3,32,0.00,,---,0.00,VWS V14.01,2013-07-07 13:06:00,
2013-07-07 08:11:00,72.0,40.5,25.48,SSE,158,5.4,5.6,32,0.00,,---,0.00,VWS V14.01,2013-07-07 13:11:00,
2013-07-07 08:16:00,72.5,41.0,25.45,South,180,4.9,4.9,32,0.00,,---,0.00,VWS V14.01,2013-07-07 13:16:00,
2013-07-07 08:21:00,73.0,41.5,25.45,SE,135,2.7,5.8,32,0.00,,---,0.00,VWS V14.01,2013-07-07 13:21:00,
2013-07-07 08:26:00,73.6,41.1,25.45,SSE,158,3.6,3.6,31,0.00,,---,0.00,VWS V14.01,2013-07-07 13:26:00,
2013-07-07 08:31:00,74.1,41.6,25.48,SSE,158,3.8,6.0,31,0.00,,---,0.00,VWS V14.01,2013-07-07 13:31:00,
2013-07-07 08:36:00,74.7,40.3,25.48,South,180,4.3,4.3,29,0.00,,---,0.00,VWS V14.01,2013-07-07 13:36:00,
2013-07-07 08:41:00,75.6,41.1,25.48,South,180,4.3,4.7,29,0.00,,---,0.00,VWS V14.01,2013-07-07 13:41:00,
2013-07-07 08:46:00,76.5,41.0,25.51,SE,135,3.6,3.6,28,0.00,,---,0.00,VWS V14.01,2013-07-07 13:46:00,
2013-07-07 08:51:00,76.8,39.4,25.51,SSW,202,2.0,2.5,26,0.00,,---,0.00,VWS V14.01,2013-07-07 13:51:00,
2013-07-07 08:55:00,77.4,39.8,25.51,South,180,2.0,2.9,26,0.00,,---,0.00,VWS V14.01,2013-07-07 13:55:00,
2013-07-07 09:01:00,78.6,39.9,25.51,SSE,158,4.0,5.4,25,0.00,,---,0.00,VWS V14.01,2013-07-07 14:01:00,
2013-07-07 09:06:00,78.3,39.6,25.51,SSW,202,3.8,4.5,25,0.00,,---,0.00,VWS V14.01,2013-07-07 14:06:00,
2013-07-07 09:11:00,77.5,39.0,25.51,SSW,202,5.4,5.4,25,0.00,,---,0.00,VWS V14.01,2013-07-07 14:11:00,
2013-07-07 09:16:00,77.5,39.0,25.51,SSW,202,8.1,9.6,25,0.00,,---,0.00,VWS V14.01,2013-07-07 14:16:00,
2013-07-07 09:21:00,77.7,39.1,25.51,South,180,9.4,10.3,25,0.00,,---,0.00,VWS V14.01,2013-07-07 14:21:00,
2013-07-07 09:26:00,77.5,39.0,25.51,South,180,7.6,8.1,25,0.00,,---,0.00,VWS V14.01,2013-07-07 14:26:00,
2013-07-07 09:31:00,78.3,39.6,25.51,South,180,3.1,5.6,25,0.00,,---,0.00,VWS V14.01,2013-07-07 14:31:00,
2013-07-07 09:36:00,78.8,39.0,25.51,SSW,202,6.0,8.5,24,0.00,,---,0.00,VWS V14.01,2013-07-07 14:36:00,
2013-07-07 09:40:00,79.2,39.3,25.51,South,180,4.9,8.5,24,0.00,,---,0.00,VWS V14.01,2013-07-07 14:40:00,
2013-07-07 09:46:00,79.3,39.5,25.51,South,180,4.3,6.5,24,0.00,,---,0.00,VWS V14.01,2013-07-07 14:46:00,
2013-07-07 09:51:00,79.3,39.5,25.51,SE,135,4.9,4.9,24,0.00,,---,0.00,VWS V14.01,2013-07-07 14:51:00,
2013-07-07 09:55:00,81.5,39.0,25.51,SSE,158,8.1,8.1,22,0.00,,---,0.00,VWS V14.01,2013-07-07 14:55:00,
2013-07-07 10:00:00,82.0,39.5,25.51,South,180,5.8,8.5,22,0.00,,---,0.00,VWS V14.01,2013-07-07 15:00:00,
2013-07-07 10:05:00,82.2,39.6,25.51,ESE,112,8.1,8.7,22,0.00,,---,0.00,VWS V14.01,2013-07-07 15:05:00,
2013-07-07 10:10:00,82.2,38.4,25.51,ESE,112,7.8,7.8,21,0.00,,---,0.00,VWS V14.01,2013-07-07 15:10:00,
2013-07-07 10:15:00,82.2,38.4,25.51,SE,135,9.8,9.8,21,0.00,,---,0.00,VWS V14.01,2013-07-07 15:15:00,
2013-07-07 10:20:00,82.0,38.3,25.51,SSE,158,8.5,8.5,21,0.00,,---,0.00,VWS V14.01,2013-07-07 15:20:00,
2013-07-07 10:25:00,82.8,38.9,25.51,SE,135,4.3,10.3,21,0.00,,---,0.00,VWS V14.01,2013-07-07 15:25:00,
2013-07-07 10:30:00,82.9,37.8,25.51,SE,135,6.5,11.0,20,0.00,,---,0.00,VWS V14.01,2013-07-07 15:30:00,
2013-07-07 10:35:00,83.5,38.2,25.51,SSE,158,8.5,8.5,20,0.00,,---,0.00,VWS V14.01,2013-07-07 15:35:00,
2013-07-07 10:40:00,83.3,38.1,25.51,SSE,158,10.7,11.0,20,0.00,,---,0.00,VWS V14.01,2013-07-07 15:40:00,
2013-07-07 10:45:00,83.8,38.5,25.48,SSE,158,6.5,7.8,20,0.00,,---,0.00,VWS V14.01,2013-07-07 15:45:00,
2013-07-07 10:50:00,84.6,39.1,25.48,SSE,158,7.6,12.3,20,0.00,,---,0.00,VWS V14.01,2013-07-07 15:50:00,
2013-07-07 10:55:00,84.7,38.0,25.48,ESE,112,6.5,13.2,19,0.00,,---,0.00,VWS V14.01,2013-07-07 15:55:00,
2013-07-07 11:00:00,85.1,38.2,25.48,SE,135,8.5,8.5,19,0.00,,---,0.00,VWS V14.01,2013-07-07 16:00:00,
2013-07-07 11:05:00,84.6,37.8,25.48,SSE,158,9.8,13.9,19,0.00,,---,0.00,VWS V14.01,2013-07-07 16:05:00,
2013-07-07 11:10:00,84.6,37.8,25.48,SE,135,9.4,12.8,19,0.00,,---,0.00,VWS V14.01,2013-07-07 16:10:00,
2013-07-07 11:15:00,85.1,38.2,25.48,SE,135,8.7,12.5,19,0.00,,---,0.00,VWS V14.01,2013-07-07 16:15:00,
2013-07-07 11:20:00,85.3,39.7,25.48,SE,135,6.5,7.2,20,0.00,,---,0.00,VWS V14.01,2013-07-07 16:20:00,
2013-07-07 11:25:00,85.3,38.4,25.48,SSE,158,10.3,13.0,19,0.00,,---,0.00,VWS V14.01,2013-07-07 16:25:00,
2013-07-07 11:30:00,86.0,39.0,25.48,South,180,9.6,10.7,19,0.00,,---,0.00,VWS V14.01,2013-07-07 16:30:00,
2013-07-07 11:35:00,86.4,39.3,25.48,South,180,6.5,6.5,19,0.00,,---,0.00,VWS V14.01,2013-07-07 16:35:00,
2013-07-07 11:40:00,85.8,38.8,25.48,SSW,202,7.4,10.1,19,0.00,,---,0.00,VWS V14.01,2013-07-07 16:40:00,
2013-07-07 11:45:00,85.6,38.7,25.48,South,180,3.1,7.8,19,0.00,,---,0.00,VWS V14.01,2013-07-07 16:45:00,
2013-07-07 11:50:00,85.8,38.8,25.48,SW,225,7.2,7.8,19,0.00,,---,0.00,VWS V14.01,2013-07-07 16:50:00,
2013-07-07 11:55:00,85.3,38.4,25.48,SSE,158,6.3,7.4,19,0.00,,---,0.00,VWS V14.01,2013-07-07 16:55:00,
2013-07-07 12:00:00,86.0,39.0,25.48,SE,135,5.6,6.3,19,0.00,,---,0.00,VWS V14.01,2013-07-07 17:00:00,
2013-07-07 12:05:00,86.7,39.6,25.48,SSE,158,4.0,5.4,19,0.00,,---,0.00,VWS V14.01,2013-07-07 17:05:00,
2013-07-07 12:10:00,86.7,39.6,25.48,SW,225,5.8,5.8,19,0.00,,---,0.00,VWS V14.01,2013-07-07 17:10:00,
2013-07-07 12:11:00,86.7,39.6,25.48,SW,225,5.8,5.8,19,0.00,,---,0.00,VWS V14.01,2013-07-07 17:11:00,
2013-07-07 12:16:00,88.0,39.2,25.48,SSE,158,3.4,6.0,18,0.00,,---,0.00,VWS V14.01,2013-07-07 17:16:00,
2013-07-07 12:21:00,88.3,39.5,25.48,SW,225,6.5,6.5,18,0.00,,---,0.00,VWS V14.01,2013-07-07 17:21:00,
2013-07-07 12:26:00,88.5,39.7,25.48,ESE,112,5.6,6.5,18,0.00,,---,0.00,VWS V14.01,2013-07-07 17:26:00,
2013-07-07 12:31:00,91.4,40.5,25.48,ESE,112,2.9,3.8,17,0.00,,---,0.00,VWS V14.01,2013-07-07 17:31:00,
2013-07-07 12:36:00,93.7,40.8,25.48,South,180,6.0,6.5,16,0.00,,---,0.00,VWS V14.01,2013-07-07 17:36:00,
2013-07-07 12:41:00,91.2,40.4,25.48,SSE,158,3.8,6.3,17,0.00,,---,0.00,VWS V14.01,2013-07-07 17:41:00,
2013-07-07 12:46:00,91.2,40.4,25.48,South,180,4.7,4.7,17,0.00,,---,0.00,VWS V14.01,2013-07-07 17:46:00,
2013-07-07 12:51:00,89.8,39.2,25.48,SW,225,7.8,7.8,17,0.00,,---,0.00,VWS V14.01,2013-07-07 17:51:00,
2013-07-07 12:56:00,90.7,39.9,25.48,SSW,202,7.2,7.2,17,0.00,,---,0.00,VWS V14.01,2013-07-07 17:56:00,
2013-07-07 13:01:00,90.1,39.5,25.48,SSW,202,6.5,6.5,17,0.00,,---,0.00,VWS V14.01,2013-07-07 18:01:00,
2013-07-07 13:06:00,90.7,39.9,25.48,South,180,8.1,8.1,17,0.00,,---,0.00,VWS V14.01,2013-07-07 18:06:00,
2013-07-07 13:11:00,92.5,41.4,25.48,South,180,6.5,7.8,17,0.00,,---,0.00,VWS V14.01,2013-07-07 18:11:00,
2013-07-07 13:16:00,94.6,41.5,25.48,West,270,3.1,3.4,16,0.00,,---,0.00,VWS V14.01,2013-07-07 18:16:00,
2013-07-07 13:21:00,94.5,41.4,25.48,SE,135,4.3,5.6,16,0.00,,---,0.00,VWS V14.01,2013-07-07 18:21:00,
2013-07-07 13:26:00,94.5,41.4,25.48,SE,135,6.0,7.4,16,0.00,,---,0.00,VWS V14.01,2013-07-07 18:26:00,
2013-07-07 13:31:00,94.5,41.4,25.45,SW,225,2.7,8.1,16,0.00,,---,0.00,VWS V14.01,2013-07-07 18:31:00,
2013-07-07 13:36:00,94.3,37.8,25.45,NNW,338,2.7,2.7,14,0.00,,---,0.00,VWS V14.01,2013-07-07 18:36:00,
2013-07-07 13:41:00,94.8,38.2,25.45,SE,135,9.2,9.2,14,0.00,,---,0.00,VWS V14.01,2013-07-07 18:41:00,
2013-07-07 13:46:00,93.7,37.4,25.45,SE,135,4.7,4.7,14,0.00,,---,0.00,VWS V14.01,2013-07-07 18:46:00,
2013-07-07 13:51:00,93.7,37.4,25.45,South,180,5.4,11.0,14,0.00,,---,0.00,VWS V14.01,2013-07-07 18:51:00,
2013-07-07 13:56:00,93.0,36.8,25.45,ESE,112,4.9,6.3,14,0.00,,---,0.00,VWS V14.01,2013-07-07 18:56:00,
2013-07-07 14:01:00,93.6,37.3,25.45,ESE,112,4.3,9.8,14,0.00,,---,0.00,VWS V14.01,2013-07-07 19:01:00,
2013-07-07 14:06:00,93.4,37.1,25.45,ENE,68,7.8,11.0,14,0.00,,---,0.00,VWS V14.01,2013-07-07 19:06:00,
2013-07-07 14:11:00,92.1,36.1,25.45,ESE,112,11.2,11.2,14,0.00,,---,0.00,VWS V14.01,2013-07-07 19:11:00,
2013-07-07 14:16:00,92.7,36.5,25.42,South,180,4.7,6.3,14,0.00,,---,0.00,VWS V14.01,2013-07-07 19:16:00,
2013-07-07 14:21:00,92.8,36.7,25.42,ESE,112,12.1,12.3,14,0.00,,---,0.00,VWS V14.01,2013-07-07 19:21:00,
2013-07-07 14:26:00,92.7,36.5,25.42,SE,135,6.3,10.5,14,0.00,,---,0.00,VWS V14.01,2013-07-07 19:26:00,
2013-07-07 14:31:00,91.2,37.2,25.42,East,90,11.0,17.2,15,0.00,,---,0.00,VWS V14.01,2013-07-07 19:31:00,
2013-07-07 14:36:00,91.6,35.7,25.42,East,90,8.5,8.5,14,0.00,,---,0.00,VWS V14.01,2013-07-07 19:36:00,
2013-07-07 14:41:00,91.8,35.8,25.42,ESE,112,5.8,9.8,14,0.00,,---,0.00,VWS V14.01,2013-07-07 19:41:00,
2013-07-07 14:46:00,92.3,36.3,25.42,ESE,112,3.6,6.0,14,0.00,,---,0.00,VWS V14.01,2013-07-07 19:46:00,
2013-07-07 14:50:00,92.3,36.3,25.42,SSE,158,6.3,6.5,14,0.00,,---,0.00,VWS V14.01,2013-07-07 19:50:00,
2013-07-07 14:55:00,92.3,36.3,25.42,ENE,68,6.3,10.1,14,0.00,,---,0.00,VWS V14.01,2013-07-07 19:55:00,
2013-07-07 15:00:00,92.3,36.3,25.42,East,90,12.8,12.8,14,0.00,,---,0.00,VWS V14.01,2013-07-07 20:00:00,
2013-07-07 15:05:00,92.5,36.4,25.42,ENE,68,6.5,7.4,14,0.00,,---,0.00,VWS V14.01,2013-07-07 20:05:00,
2013-07-07 15:10:00,92.8,36.7,25.42,ESE,112,6.0,6.0,14,0.00,,---,0.00,VWS V14.01,2013-07-07 20:10:00,
2013-07-07 15:15:00,93.4,31.1,25.42,ESE,112,10.3,10.3,11,0.00,,---,0.00,VWS V14.01,2013-07-07 20:15:00,
2013-07-07 15:21:00,92.8,32.8,25.42,East,90,5.6,6.3,12,0.00,,---,0.00,VWS V14.01,2013-07-07 20:21:00,
2013-07-07 15:26:00,92.5,36.4,25.42,ENE,68,7.2,10.7,14,0.00,,---,0.00,VWS V14.01,2013-07-07 20:26:00,
2013-07-07 15:31:00,92.3,36.3,25.42,ESE,112,7.4,12.5,14,0.00,,---,0.00,VWS V14.01,2013-07-07 20:31:00,
2013-07-07 15:36:00,92.5,36.4,25.42,ESE,112,13.2,13.2,14,0.00,,---,0.00,VWS V14.01,2013-07-07 20:36:00,
2013-07-07 15:40:00,92.5,32.5,25.42,ENE,68,7.6,10.3,12,0.00,,---,0.00,VWS V14.01,2013-07-07 20:40:00,
2013-07-07 15:46:00,92.1,32.3,25.42,ESE,112,11.0,11.0,12,0.00,,---,0.00,VWS V14.01,2013-07-07 20:46:00,
2013-07-07 15:51:00,93.2,31.0,25.42,SE,135,6.3,6.3,11,0.00,,---,0.00,VWS V14.01,2013-07-07 20:51:00,
2013-07-07 15:56:00,95.4,32.6,25.42,SE,135,8.1,8.1,11,0.00,,---,0.00,VWS V14.01,2013-07-07 20:56:00,
2013-07-07 16:01:00,93.6,31.2,25.42,ENE,68,8.7,8.7,11,0.00,,---,0.00,VWS V14.01,2013-07-07 21:01:00,
2013-07-07 16:06:00,92.3,32.4,25.42,ENE,68,12.1,15.4,12,0.00,,---,0.00,VWS V14.01,2013-07-07 21:06:00,
2013-07-07 16:10:00,92.7,32.7,25.42,ENE,68,15.2,15.7,12,0.00,,---,0.00,VWS V14.01,2013-07-07 21:10:00,
2013-07-07 16:15:00,92.5,32.5,25.42,ENE,68,12.5,13.6,12,0.00,,---,0.00,VWS V14.01,2013-07-07 21:15:00,
2013-07-07 16:20:00,92.3,32.4,25.42,ESE,112,11.4,15.4,12,0.00,,---,0.00,VWS V14.01,2013-07-07 21:20:00,
2013-07-07 16:25:00,91.9,32.1,25.42,SE,135,10.1,18.1,12,0.00,,---,0.00,VWS V14.01,2013-07-07 21:25:00,
2013-07-07 16:30:00,91.4,31.7,25.42,ESE,112,9.8,10.3,12,0.00,,---,0.00,VWS V14.01,2013-07-07 21:30:00,
2013-07-07 16:35:00,91.8,32.0,25.42,ESE,112,12.5,12.5,12,0.00,,---,0.00,VWS V14.01,2013-07-07 21:35:00,
2013-07-07 16:40:00,91.8,32.0,25.42,East,90,8.7,12.8,12,0.00,,---,0.00,VWS V14.01,2013-07-07 21:40:00,
2013-07-07 16:45:00,92.7,32.7,25.39,East,90,11.0,11.0,12,0.00,,---,0.00,VWS V14.01,2013-07-07 21:45:00,
2013-07-07 16:50:00,92.3,36.3,25.39,ESE,112,9.8,9.8,14,0.00,,---,0.00,VWS V14.01,2013-07-07 21:50:00,
2013-07-07 16:55:00,91.9,36.0,25.39,ENE,68,15.4,15.4,14,0.00,,---,0.00,VWS V14.01,2013-07-07 21:55:00,
2013-07-07 17:00:00,91.2,37.2,25.39,ESE,112,12.1,12.1,15,0.00,,---,0.00,VWS V14.01,2013-07-07 22:00:00,
2013-07-07 17:05:00,91.4,31.7,25.39,East,90,15.2,15.2,12,0.00,,---,0.00,VWS V14.01,2013-07-07 22:05:00,
2013-07-07 17:10:00,91.4,31.7,25.39,ESE,112,11.0,13.2,12,0.00,,---,0.00,VWS V14.01,2013-07-07 22:10:00,
2013-07-07 17:15:00,90.9,36.9,25.39,NE,45,6.3,9.0,15,0.00,,---,0.00,VWS V14.01,2013-07-07 22:15:00,
2013-07-07 17:20:00,90.7,36.7,25.39,East,90,14.5,16.3,15,0.00,,---,0.00,VWS V14.01,2013-07-07 22:20:00,
2013-07-07 17:21:00,90.7,36.7,25.39,East,90,14.8,16.3,15,0.00,,---,0.00,VWS V14.01,2013-07-07 22:21:00,
2013-07-07 17:26:00,91.4,35.6,25.39,ESE,112,10.1,10.1,14,0.00,,---,0.00,VWS V14.01,2013-07-07 22:26:00,
2013-07-07 17:31:00,91.8,35.8,25.39,East,90,7.4,9.8,14,0.00,,---,0.00,VWS V14.01,2013-07-07 22:31:00,
2013-07-07 17:36:00,91.6,35.7,25.39,East,90,10.1,10.1,14,0.00,,---,0.00,VWS V14.01,2013-07-07 22:36:00,
2013-07-07 17:41:00,91.6,35.7,25.39,East,90,13.2,13.2,14,0.00,,---,0.00,VWS V14.01,2013-07-07 22:41:00,
2013-07-07 17:45:00,91.4,35.6,25.39,East,90,10.5,11.0,14,0.00,,---,0.00,VWS V14.01,2013-07-07 22:45:00,
2013-07-07 17:50:00,90.0,36.2,25.39,East,90,13.9,13.9,15,0.00,,---,0.00,VWS V14.01,2013-07-07 22:50:00,
2013-07-07 17:55:00,89.8,36.0,25.39,East,90,10.7,15.4,15,0.00,,---,0.00,VWS V14.01,2013-07-07 22:55:00,
2013-07-07 18:00:00,89.6,35.9,25.39,East,90,10.7,13.2,15,0.00,,---,0.00,VWS V14.01,2013-07-07 23:00:00,
2013-07-07 18:05:00,89.8,36.0,25.39,SE,135,7.8,12.1,15,0.00,,---,0.00,VWS V14.01,2013-07-07 23:05:00,
2013-07-07 18:10:00,89.4,35.7,25.39,ESE,112,11.2,13.2,15,0.00,,---,0.00,VWS V14.01,2013-07-07 23:10:00,
2013-07-07 18:15:00,89.2,35.6,25.39,East,90,15.4,20.4,15,0.00,,---,0.00,VWS V14.01,2013-07-07 23:15:00,
2013-07-07 18:20:00,89.2,35.6,25.39,ESE,112,11.0,11.0,15,0.00,,---,0.00,VWS V14.01,2013-07-07 23:20:00,
2013-07-07 18:25:00,88.5,35.0,25.39,ENE,68,15.4,15.4,15,0.00,,---,0.00,VWS V14.01,2013-07-07 23:25:00,
2013-07-07 18:30:00,88.5,35.0,25.37,East,90,10.3,13.4,15,0.00,,---,0.00,VWS V14.01,2013-07-07 23:30:00,
2013-07-07 18:35:00,87.8,34.5,25.37,ESE,112,13.4,13.4,15,0.00,,---,0.00,VWS V14.01,2013-07-07 23:35:00,
2013-07-07 18:40:00,88.0,34.6,25.37,East,90,8.5,9.6,15,0.00,,---,0.00,VWS V14.01,2013-07-07 23:40:00,
2013-07-07 18:45:00,87.8,34.5,25.37,ESE,112,8.7,13.2,15,0.00,,---,0.00,VWS V14.01,2013-07-07 23:45:00,
2013-07-07 18:50:00,87.1,35.5,25.37,ESE,112,17.7,17.7,16,0.00,,---,0.00,VWS V14.01,2013-07-07 23:50:00,
2013-07-07 18:51:00,87.1,35.5,25.37,East,90,14.5,14.5,16,0.00,,---,0.00,VWS V14.01,2013-07-07 23:51:00,
2013-07-07 18:56:00,87.1,35.5,25.37,ESE,112,12.5,13.6,16,0.00,,---,0.00,VWS V14.01,2013-07-07 23:56:00,
2013-07-07 19:01:00,86.9,38.3,25.39,ESE,112,12.1,12.8,18,0.00,,---,0.00,VWS V14.01,2013-07-08 00:01:00,
2013-07-07 19:06:00,87.1,38.5,25.39,ESE,112,12.1,13.9,18,0.00,,---,0.00,VWS V14.01,2013-07-08 00:06:00,
2013-07-07 19:11:00,86.5,38.0,25.39,ESE,112,12.8,17.5,18,0.00,,---,0.00,VWS V14.01,2013-07-08 00:11:00,
2013-07-07 19:16:00,85.6,37.3,25.39,East,90,11.0,11.0,18,0.00,,---,0.00,VWS V14.01,2013-07-08 00:16:00,
2013-07-07 19:21:00,85.6,37.3,25.39,ESE,112,13.2,13.2,18,0.00,,---,0.00,VWS V14.01,2013-07-08 00:21:00,
2013-07-07 19:26:00,85.3,37.0,25.39,ESE,112,13.0,15.4,18,0.00,,---,0.00,VWS V14.01,2013-07-08 00:26:00,
2013-07-07 19:31:00,85.1,36.9,25.39,East,90,15.2,17.2,18,0.00,,---,0.00,VWS V14.01,2013-07-08 00:31:00,
2013-07-07 19:36:00,84.7,36.6,25.39,East,90,10.3,17.2,18,0.00,,---,0.00,VWS V14.01,2013-07-08 00:36:00,
2013-07-07 19:41:00,84.4,37.7,25.39,ESE,112,17.7,17.7,19,0.00,,---,0.00,VWS V14.01,2013-07-08 00:41:00,
2013-07-07 19:46:00,84.2,37.5,25.39,ESE,112,11.0,11.0,19,0.00,,---,0.00,VWS V14.01,2013-07-08 00:46:00,
2013-07-07 19:51:00,84.0,37.4,25.39,East,90,13.2,13.2,19,0.00,,---,0.00,VWS V14.01,2013-07-08 00:51:00,
2013-07-07 19:56:00,83.5,36.9,25.39,East,90,12.5,12.5,19,0.00,,---,0.00,VWS V14.01,2013-07-08 00:56:00,
2013-07-07 20:01:00,83.5,36.9,25.42,ESE,112,11.0,11.0,19,0.00,,---,0.00,VWS V14.01,2013-07-08 01:01:00,
2013-07-07 20:06:00,83.3,36.8,25.42,ESE,112,15.4,15.4,19,0.00,,---,0.00,VWS V14.01,2013-07-08 01:06:00,
2013-07-07 20:11:00,82.6,36.2,25.42,ESE,112,18.6,18.6,19,0.00,,---,0.00,VWS V14.01,2013-07-08 01:11:00,
2013-07-07 20:16:00,82.2,37.2,25.42,ESE,112,15.2,17.7,20,0.00,,---,0.00,VWS V14.01,2013-07-08 01:16:00,
2013-07-07 20:21:00,82.0,37.0,25.42,ESE,112,10.1,10.3,20,0.00,,---,0.00,VWS V14.01,2013-07-08 01:21:00,
2013-07-07 20:26:00,81.5,36.6,25.42,ESE,112,10.7,12.8,20,0.00,,---,0.00,VWS V14.01,2013-07-08 01:26:00,
2013-07-07 20:31:00,81.1,36.3,25.42,East,90,12.5,12.5,20,0.00,,---,0.00,VWS V14.01,2013-07-08 01:31:00,
2013-07-07 20:36:00,80.6,35.9,25.42,East,90,12.8,13.2,20,0.00,,---,0.00,VWS V14.01,2013-07-08 01:36:00,
2013-07-07 20:41:00,80.2,36.8,25.42,ESE,112,10.1,10.7,21,0.00,,---,0.00,VWS V14.01,2013-07-08 01:41:00,
2013-07-07 20:46:00,79.9,36.5,25.42,East,90,12.1,12.1,21,0.00,,---,0.00,VWS V14.01,2013-07-08 01:46:00,
2013-07-07 20:51:00,79.3,37.2,25.42,ESE,112,15.2,15.2,22,0.00,,---,0.00,VWS V14.01,2013-07-08 01:51:00,
2013-07-07 20:56:00,79.0,36.9,25.42,ESE,112,14.3,14.3,22,0.00,,---,0.00,VWS V14.01,2013-07-08 01:56:00,
2013-07-07 21:01:00,78.6,37.8,25.42,ESE,112,9.4,12.1,23,0.00,,---,0.00,VWS V14.01,2013-07-08 02:01:00,
2013-07-07 21:06:00,78.4,38.7,25.42,East,90,15.4,15.4,24,0.00,,---,0.00,VWS V14.01,2013-07-08 02:06:00,
2013-07-07 21:11:00,78.1,40.4,25.42,ESE,112,11.0,15.7,26,0.00,,---,0.00,VWS V14.01,2013-07-08 02:11:00,
2013-07-07 21:16:00,77.9,41.3,25.42,East,90,10.5,10.5,27,0.00,,---,0.00,VWS V14.01,2013-07-08 02:16:00,
2013-07-07 21:21:00,77.5,41.9,25.42,East,90,10.3,13.2,28,0.00,,---,0.00,VWS V14.01,2013-07-08 02:21:00,
2013-07-07 21:26:00,77.4,42.7,25.42,East,90,10.7,13.2,29,0.00,,---,0.00,VWS V14.01,2013-07-08 02:26:00,
2013-07-07 21:31:00,77.2,43.4,25.42,East,90,10.5,17.2,30,0.00,,---,0.00,VWS V14.01,2013-07-08 02:31:00,
2013-07-07 21:36:00,77.0,43.2,25.42,ESE,112,9.0,9.0,30,0.00,,---,0.00,VWS V14.01,2013-07-08 02:36:00,
2013-07-07 21:41:00,76.6,43.8,25.42,ESE,112,12.5,13.2,31,0.00,,---,0.00,VWS V14.01,2013-07-08 02:41:00,
2013-07-07 21:46:00,76.6,43.8,25.45,ESE,112,12.3,13.9,31,0.00,,---,0.00,VWS V14.01,2013-07-08 02:46:00,
2013-07-07 21:51:00,76.5,43.6,25.45,ESE,112,14.5,15.4,31,0.00,,---,0.00,VWS V14.01,2013-07-08 02:51:00,
2013-07-07 21:56:00,76.1,43.3,25.45,ESE,112,13.0,19.7,31,0.00,,---,0.00,VWS V14.01,2013-07-08 02:56:00,
2013-07-07 22:01:00,75.9,44.0,25.48,ESE,112,10.3,12.3,32,0.00,,---,0.00,VWS V14.01,2013-07-08 03:01:00,
2013-07-07 22:06:00,75.9,44.0,25.48,ESE,112,14.3,14.3,32,0.00,,---,0.00,VWS V14.01,2013-07-08 03:06:00,
2013-07-07 22:11:00,75.7,43.8,25.48,ESE,112,11.2,11.2,32,0.00,,---,0.00,VWS V14.01,2013-07-08 03:11:00,
2013-07-07 22:16:00,75.4,43.5,25.48,ENE,68,15.4,17.7,32,0.00,,---,0.00,VWS V14.01,2013-07-08 03:16:00,
2013-07-07 22:21:00,75.4,44.3,25.48,ESE,112,15.4,17.2,33,0.00,,---,0.00,VWS V14.01,2013-07-08 03:21:00,
2013-07-07 22:26:00,75.0,44.0,25.48,ESE,112,14.8,14.8,33,0.00,,---,0.00,VWS V14.01,2013-07-08 03:26:00,
2013-07-07 22:30:00,75.0,44.8,25.48,ESE,112,13.0,15.2,34,0.00,,---,0.00,VWS V14.01,2013-07-08 03:30:00,
2013-07-07 22:35:00,75.0,44.8,25.48,East,90,13.2,17.5,34,0.00,,---,0.00,VWS V14.01,2013-07-08 03:35:00,
2013-07-07 22:40:00,74.8,45.4,25.48,ESE,112,22.2,22.2,35,0.00,,---,0.00,VWS V14.01,2013-07-08 03:40:00,
2013-07-07 22:45:00,74.8,45.4,25.48,SE,135,19.9,19.9,35,0.00,,---,0.00,VWS V14.01,2013-07-08 03:45:00,
2013-07-07 22:50:00,74.7,45.2,25.48,ESE,112,12.1,15.4,35,0.00,,---,0.00,VWS V14.01,2013-07-08 03:50:00,
2013-07-07 22:55:00,74.5,45.8,25.48,East,90,15.9,18.6,36,0.00,,---,0.00,VWS V14.01,2013-07-08 03:55:00,
2013-07-07 23:00:00,74.5,45.8,25.48,ESE,112,10.7,15.2,36,0.00,,---,0.00,VWS V14.01,2013-07-08 04:00:00,
2013-07-07 23:01:00,74.5,45.8,25.48,ESE,112,10.7,15.2,36,0.00,,---,0.00,VWS V14.01,2013-07-08 04:01:00,
2013-07-07 23:06:00,74.3,46.4,25.48,SE,135,12.8,12.8,37,0.00,,---,0.00,VWS V14.01,2013-07-08 04:06:00,
2013-07-07 23:11:00,74.3,46.4,25.48,ESE,112,16.6,16.6,37,0.00,,---,0.00,VWS V14.01,2013-07-08 04:11:00,
2013-07-07 23:16:00,74.3,46.4,25.48,ESE,112,19.7,19.7,37,0.00,,---,0.00,VWS V14.01,2013-07-08 04:16:00,
2013-07-07 23:21:00,73.8,45.9,25.48,ESE,112,11.0,11.0,37,0.00,,---,0.00,VWS V14.01,2013-07-08 04:21:00,
2013-07-07 23:26:00,73.8,46.6,25.45,SSE,158,16.3,16.3,38,0.00,,---,0.00,VWS V14.01,2013-07-08 04:26:00,
2013-07-07 23:31:00,73.8,46.6,25.48,ESE,112,19.5,19.5,38,0.00,,---,0.00,VWS V14.01,2013-07-08 04:31:00,
2013-07-07 23:36:00,73.8,46.6,25.48,SE,135,17.7,17.7,38,0.00,,---,0.00,VWS V14.01,2013-07-08 04:36:00,
2013-07-07 23:41:00,73.6,47.1,25.48,East,90,17.5,17.5,39,0.00,,---,0.00,VWS V14.01,2013-07-08 04:41:00,
2013-07-07 23:46:00,73.6,47.1,25.51,ESE,112,12.8,16.3,39,0.00,,---,0.00,VWS V14.01,2013-07-08 04:46:00,
2013-07-07 23:51:00,73.4,47.0,25.51,ESE,112,17.7,17.7,39,0.00,,---,0.00,VWS V14.01,2013-07-08 04:51:00,
2013-07-07 23:56:00,73.4,47.0,25.51,ESE,112,17.5,19.5,39,0.00,,---,0.00,VWS V14.01,2013-07-08 04:56:00,